timestamp,wind_dir_avg,wind_spd_avg,wind_spd_max_dir,wind_spd_gust,battery_voltage,lat,long
2020-12-10 00:04:01+00:00,268.0,7.93,269.0,9.6,12.57,47.59359,-54.27349
2020-12-10 00:14:01+00:00,276.0,6.14,276.0,8.09,12.57,47.59359,-54.27349
2020-12-10 00:24:01+00:00,275.0,6.43,273.0,7.8,12.57,47.59359,-54.27349
2020-12-10 00:34:01+00:00,284.0,9.16,282.0,11.15,12.57,47.59359,-54.27349
2020-12-10 00:44:01+00:00,283.0,9.56,283.0,11.04,12.57,47.59359,-54.27349
2020-12-10 00:54:01+00:00,273.0,8.46,272.0,9.89,12.57,47.59359,-54.27349
2020-12-10 01:04:01+00:00,267.0,8.7,269.0,9.77,12.57,47.59359,-54.27349
2020-12-10 01:14:01+00:00,274.0,9.27,276.0,10.47,12.49,47.59359,-54.27349
2020-12-10 01:24:01+00:00,270.0,8.6,267.0,9.42,12.49,47.59359,-54.27349
2020-12-10 01:34:01+00:00,263.0,7.82,259.0,10.62,12.49,47.59359,-54.27349
2020-12-10 01:44:01+00:00,268.0,9.11,267.0,10.15,12.49,47.59359,-54.27349
2020-12-10 01:54:01+00:00,270.0,8.23,268.0,9.79,12.49,47.59359,-54.27349
2020-12-10 02:04:01+00:00,269.0,7.99,269.0,8.74,12.49,47.59359,-54.27349
2020-12-10 02:14:01+00:00,271.0,7.47,272.0,8.33,12.49,47.59359,-54.27349
2020-12-10 02:24:01+00:00,271.0,7.15,274.0,7.82,12.49,47.59359,-54.27349
2020-12-10 02:34:01+00:00,276.0,6.9,280.0,8.06,12.49,47.59359,-54.27349
2020-12-10 02:44:01+00:00,281.0,6.57,283.0,7.22,12.49,47.59359,-54.27349
2020-12-10 02:54:01+00:00,282.0,5.88,288.0,6.39,12.49,47.59359,-54.27349
2020-12-10 03:04:01+00:00,281.0,6.59,275.0,7.76,12.49,47.59359,-54.27349
2020-12-10 03:14:01+00:00,285.0,7.97,292.0,9.02,12.57,47.59359,-54.27349
2020-12-10 03:24:01+00:00,283.0,7.83,281.0,10.2,12.57,47.59359,-54.27349
2020-12-10 03:34:01+00:00,276.0,7.74,277.0,8.52,12.57,47.59359,-54.27349
2020-12-10 03:44:01+00:00,279.0,8.34,273.0,9.98,12.57,47.59359,-54.27349
2020-12-10 03:54:01+00:00,276.0,7.5,275.0,8.41,12.57,47.59359,-54.27349
2020-12-10 04:04:01+00:00,276.0,8.4,276.0,9.53,12.57,47.59359,-54.27349
2020-12-10 04:14:01+00:00,281.0,7.17,288.0,8.94,12.49,47.59359,-54.27349
2020-12-10 04:24:01+00:00,272.0,7.92,273.0,9.24,12.49,47.59359,-54.27349
2020-12-10 04:34:01+00:00,273.0,7.06,276.0,8.05,12.49,47.59359,-54.27349
2020-12-10 04:44:01+00:00,268.0,7.91,272.0,8.96,12.49,47.59359,-54.27349
2020-12-10 04:54:01+00:00,275.0,7.21,283.0,8.35,12.49,47.59359,-54.27349
2020-12-10 05:04:01+00:00,270.0,6.27,264.0,7.35,12.49,47.59359,-54.27349
2020-12-10 05:14:01+00:00,271.0,5.67,276.0,6.23,12.49,47.59359,-54.27349
2020-12-10 05:24:01+00:00,275.0,7.06,282.0,8.4,12.49,47.59359,-54.27349
2020-12-10 05:34:01+00:00,279.0,6.89,277.0,7.95,12.49,47.59359,-54.27349
2020-12-10 05:44:01+00:00,293.0,7.56,293.0,8.23,12.49,47.59359,-54.27349
2020-12-10 05:54:01+00:00,297.0,6.92,297.0,8.52,12.49,47.59359,-54.27349
2020-12-10 06:04:01+00:00,289.0,5.6,276.0,6.44,12.49,47.59359,-54.27349
2020-12-10 06:14:01+00:00,290.0,6.32,289.0,7.51,12.41,47.59359,-54.27349
2020-12-10 06:24:01+00:00,291.0,7.27,298.0,8.29,12.41,47.59359,-54.27349
2020-12-10 06:34:01+00:00,279.0,7.33,268.0,8.07,12.41,47.59359,-54.27349
2020-12-10 06:44:01+00:00,283.0,6.97,284.0,8.42,12.41,47.59359,-54.27349
2020-12-10 06:54:01+00:00,279.0,5.32,281.0,6.52,12.41,47.59359,-54.27349
2020-12-10 07:04:01+00:00,273.0,5.58,280.0,6.93,12.41,47.59359,-54.27349
2020-12-10 07:14:01+00:00,271.0,5.92,268.0,7.76,12.41,47.59359,-54.27349
2020-12-10 07:24:01+00:00,296.0,6.62,298.0,7.65,12.41,47.59359,-54.27349
2020-12-10 07:34:01+00:00,315.0,4.62,319.0,5.5,12.41,47.59359,-54.27349
2020-12-10 07:44:01+00:00,292.0,4.14,282.0,5.1,12.41,47.59359,-54.27349
2020-12-10 07:54:01+00:00,287.0,4.76,289.0,5.84,12.41,47.59359,-54.27349
2020-12-10 08:04:01+00:00,292.0,3.77,290.0,4.33,12.41,47.59359,-54.27349
2020-12-10 08:14:01+00:00,275.0,6.35,279.0,9.05,12.41,47.59359,-54.27349
2020-12-10 08:24:01+00:00,289.0,6.08,286.0,6.8,12.41,47.59359,-54.27349
2020-12-10 08:34:01+00:00,291.0,6.36,290.0,7.06,12.41,47.59359,-54.27349
2020-12-10 08:44:01+00:00,310.0,6.99,311.0,7.78,12.41,47.59359,-54.27349
2020-12-10 08:54:01+00:00,314.0,6.47,314.0,7.02,12.41,47.59359,-54.27349
2020-12-10 09:04:01+00:00,305.0,5.68,306.0,6.65,12.41,47.59359,-54.27349
2020-12-10 09:14:01+00:00,285.0,4.96,286.0,5.63,12.41,47.59359,-54.27349
2020-12-10 09:24:01+00:00,294.0,3.39,286.0,4.04,12.41,47.59359,-54.27349
2020-12-10 09:34:01+00:00,263.0,3.33,264.0,4.31,12.41,47.59359,-54.27349
2020-12-10 09:44:01+00:00,273.0,1.3,269.0,1.96,12.41,47.59359,-54.27349
2020-12-10 09:54:01+00:00,301.0,2.31,295.0,2.83,12.41,47.59359,-54.27349
2020-12-10 10:04:01+00:00,290.0,3.86,292.0,4.56,12.41,47.59359,-54.27349
2020-12-10 10:14:01+00:00,287.0,2.91,285.0,3.67,12.41,47.59359,-54.27349
2020-12-10 10:24:01+00:00,265.0,2.86,272.0,3.59,12.41,47.59359,-54.27349
2020-12-10 10:34:01+00:00,260.0,3.01,279.0,4.09,12.41,47.59359,-54.27349
2020-12-10 10:44:01+00:00,291.0,3.31,298.0,4.24,12.41,47.59359,-54.27349
2020-12-10 10:54:01+00:00,276.0,4.71,277.0,5.72,12.41,47.59359,-54.27349
2020-12-10 11:04:01+00:00,271.0,4.56,268.0,6.42,12.41,47.59359,-54.27349
2020-12-10 11:14:01+00:00,292.0,3.37,289.0,3.92,12.41,47.59359,-54.27349
2020-12-10 11:24:01+00:00,292.0,3.04,283.0,4.26,12.41,47.59359,-54.27349
2020-12-10 11:34:01+00:00,301.0,3.66,303.0,4.07,12.41,47.59359,-54.27349
2020-12-10 11:44:01+00:00,302.0,3.89,295.0,4.75,12.41,47.59359,-54.27349
2020-12-10 11:54:01+00:00,272.0,3.23,269.0,3.79,12.41,47.59359,-54.27349
2020-12-10 12:04:01+00:00,298.0,2.15,289.0,2.55,12.41,47.59359,-54.27349
2020-12-10 12:14:01+00:00,294.0,2.2,297.0,2.72,12.57,47.59359,-54.27349
2020-12-10 12:24:01+00:00,287.0,2.14,273.0,2.77,12.57,47.59359,-54.27349
2020-12-10 12:34:01+00:00,286.0,0.8,300.0,1.17,12.57,47.59359,-54.27349
2020-12-10 12:44:01+00:00,254.0,1.48,230.0,2.51,12.57,47.59359,-54.27349
2020-12-10 12:54:01+00:00,257.0,2.15,256.0,2.79,12.57,47.59359,-54.27349
2020-12-10 13:04:01+00:00,267.0,2.46,264.0,2.98,12.57,47.59359,-54.27349
2020-12-10 13:14:01+00:00,273.0,2.13,279.0,2.46,13.6,47.59359,-54.27349
2020-12-10 13:24:01+00:00,254.0,2.29,258.0,2.92,13.6,47.59359,-54.27349
2020-12-10 13:34:01+00:00,259.0,3.02,255.0,3.56,13.6,47.59359,-54.27349
2020-12-10 13:44:01+00:00,284.0,2.83,287.0,3.4,13.6,47.59359,-54.27349
2020-12-10 13:54:01+00:00,282.0,2.04,283.0,2.56,13.6,47.59359,-54.27349
2020-12-10 14:04:01+00:00,271.0,1.65,265.0,2.09,13.6,47.59359,-54.27349
2020-12-10 14:14:01+00:00,291.0,2.28,294.0,2.68,13.6,47.59359,-54.27349
2020-12-10 14:24:01+00:00,347.0,1.94,343.0,2.52,13.6,47.59359,-54.27349
2020-12-10 14:34:01+00:00,14.0,1.77,16.0,2.4,13.6,47.59359,-54.27349
2020-12-10 14:44:01+00:00,341.0,1.89,341.0,2.28,13.6,47.59359,-54.27349
2020-12-10 14:54:01+00:00,36.0,1.9,39.0,2.46,13.6,47.59359,-54.27349
2020-12-10 15:04:01+00:00,358.0,1.14,5.0,1.52,13.6,47.59359,-54.27349
2020-12-10 15:14:01+00:00,316.0,1.33,312.0,1.68,13.84,47.59359,-54.27349
2020-12-10 15:24:01+00:00,338.0,0.27,351.0,0.48,13.84,47.59359,-54.27349
2020-12-10 15:34:01+00:00,274.0,0.27,287.0,0.58,13.84,47.59359,-54.27349
2020-12-10 15:44:01+00:00,137.0,0.67,157.0,0.97,13.84,47.59359,-54.27349
2020-12-10 15:54:01+00:00,135.0,1.74,133.0,2.11,13.84,47.59359,-54.27349
2020-12-10 16:04:01+00:00,114.0,1.65,116.0,2.13,13.84,47.59359,-54.27349
2020-12-10 16:14:01+00:00,143.0,1.22,143.0,1.52,13.68,47.59359,-54.27349
2020-12-10 16:24:01+00:00,72.0,1.94,69.0,2.31,13.68,47.59359,-54.27349
2020-12-10 16:34:01+00:00,64.0,0.68,63.0,0.93,13.68,47.59359,-54.27349
2020-12-10 16:44:01+00:00,185.0,1.24,187.0,1.52,13.68,47.59359,-54.27349
2020-12-10 16:54:01+00:00,147.0,0.66,150.0,0.97,13.68,47.59359,-54.27349
2020-12-10 17:04:01+00:00,108.0,1.24,100.0,1.54,13.68,47.59359,-54.27349
2020-12-10 17:14:01+00:00,179.0,0.8,184.0,1.15,14.24,47.59359,-54.27349
2020-12-10 17:24:01+00:00,125.0,0.72,118.0,0.9,14.24,47.59359,-54.27349
2020-12-10 17:34:01+00:00,160.0,0.46,141.0,0.66,14.24,47.59359,-54.27349
2020-12-10 17:44:01+00:00,126.0,0.65,120.0,0.79,14.24,47.59359,-54.27349
2020-12-10 17:54:01+00:00,125.0,0.93,123.0,1.06,14.24,47.59359,-54.27349
2020-12-10 18:04:01+00:00,64.0,1.73,58.0,1.99,14.24,47.59359,-54.27349
2020-12-10 18:14:01+00:00,43.0,1.61,49.0,1.9,14.16,47.59359,-54.27349
2020-12-10 18:24:01+00:00,46.0,1.82,46.0,2.32,14.16,47.59359,-54.27349
2020-12-10 18:34:01+00:00,45.0,1.64,39.0,1.92,14.16,47.59359,-54.27349
2020-12-10 18:44:01+00:00,44.0,0.71,36.0,0.98,14.16,47.59359,-54.27349
2020-12-10 18:54:01+00:00,40.0,1.11,41.0,1.41,14.16,47.59359,-54.27349
2020-12-10 19:04:01+00:00,59.0,0.91,51.0,1.04,14.16,47.59359,-54.27349
2020-12-10 20:14:01+00:00,141.0,1.85,148.0,2.23,12.81,47.59359,-54.27349
2020-12-10 20:24:01+00:00,137.0,2.09,138.0,2.39,12.81,47.59359,-54.27349
2020-12-10 20:34:01+00:00,133.0,1.86,132.0,2.37,12.81,47.59359,-54.27349
2020-12-10 20:44:01+00:00,124.0,1.48,123.0,1.99,12.81,47.59359,-54.27349
2020-12-10 20:54:01+00:00,134.0,2.46,141.0,2.77,12.81,47.59359,-54.27349
2020-12-10 21:04:01+00:00,132.0,2.22,130.0,2.68,12.81,47.59359,-54.27349
2020-12-10 21:14:01+00:00,121.0,2.58,120.0,3.37,12.65,47.59359,-54.27349
2020-12-10 21:24:01+00:00,77.0,1.07,91.0,1.68,12.65,47.59359,-54.27349
2020-12-10 21:34:01+00:00,86.0,1.96,93.0,2.61,12.65,47.59359,-54.27349
2020-12-10 21:44:01+00:00,76.0,2.94,82.0,4.01,12.65,47.59359,-54.27349
2020-12-10 21:54:01+00:00,96.0,3.31,99.0,5.04,12.65,47.59359,-54.27349
2020-12-10 22:04:01+00:00,75.0,3.37,80.0,4.61,12.65,47.59359,-54.27349
2020-12-10 22:14:01+00:00,73.0,3.0,92.0,4.62,12.57,47.59359,-54.27349
2020-12-10 22:24:01+00:00,76.0,3.59,75.0,4.71,12.57,47.59359,-54.27349
2020-12-10 22:34:01+00:00,79.0,2.82,70.0,3.94,12.57,47.59359,-54.27349
2020-12-10 22:44:01+00:00,74.0,4.23,86.0,5.63,12.57,47.59359,-54.27349
2020-12-10 22:54:01+00:00,73.0,5.25,64.0,7.1,12.57,47.59359,-54.27349
2020-12-10 23:04:01+00:00,72.0,5.01,73.0,5.98,12.57,47.59359,-54.27349
2020-12-10 23:14:01+00:00,80.0,3.92,68.0,6.07,12.57,47.59359,-54.27349
2020-12-10 23:24:01+00:00,73.0,4.94,60.0,5.92,12.57,47.59359,-54.27349
2020-12-10 23:34:01+00:00,72.0,5.81,69.0,6.5,12.57,47.59359,-54.27349
2020-12-10 23:44:01+00:00,67.0,6.28,62.0,6.97,12.57,47.59359,-54.27349
2020-12-10 23:54:01+00:00,51.0,7.01,50.0,8.36,12.57,47.59359,-54.27349
